Temperature
9 7 7 8 8 9 9 9 9 9 10 10 9 9 10 11 10 10 11 11 11 11 11 11 11 11 11 11 11 11 11 11 11 11 11 11 11 11 11 11 11 11 11 11
7 8 8 9 9 9 9 9 9 9 10 10 9 9 9 9 10 11 11 11 11 11 11 11 11 11 11 11 11 11 11 11 11 11 11 11 11 10 10 10 10 10 10 10
8 9 9 9 9 9 9 9 9 9 9 9 9 9 9 10 10 11 11 11 11 11 11 11 11 11 11 11 11 11 11 11 11 10 10 10 10 10 10 10 10 10 10 9
8 9 9 9 9 9 8 9 9 9 8 8 9 8 9 9 9 9 10 10 11 11 11 11 11 11 11 11 11 11 10 10 10 10 10 10 10 10 10 10 9 9 9 9
8 9 8 9 9 9 8 9 9 9 8 8 8 8 8 9 9 9 9 10 11 11 11 11 11 11 11 11 10 10 10 10 10 10 10 10 10 9 9 9 9 9 9 9
8 9 9 9 9 9 9 8 8 7 7 8 8 8 8 8 9 9 9 10 11 11 11 11 11 11 11 10 10 10 10 10 9 9 9 9 9 9 9 9 9 9 8 8
8 8 9 9 9 8 8 7 7 8 7 8 8 8 8 9 9 10 9 10 11 11 11 11 10 10 10 10 10 10 10 9 9 9 9 9 9 8 8 8 8 8 8 8
7 7 8 9 9 8 8 8 7 8 8 7 8 8 9 9 9 10 10 10 10 10 10 10 10 10 10 10 10 10 9 9 9 9 9 9 8 8 8 8 8 8 8 8
7 7 8 9 9 9 8 7 8 7 7 7 7 8 8 9 9 9 9 10 10 10 10 10 10 10 10 10 10 10 9 9 9 9 8 8 8 8 8 8 8 7 7 7
8 7 8 8 9 9 8 8 6 7 8 8 8 8 8 9 9 8 8 9 10 10 10 10 10 10 10 10 9 9 9 9 8 8 8 8 8 7 7 7 7 7 7 7
8 7 7 7 8 8 8 8 7 6 6 7 8 9 9 9 9 8 8 9 10 10 10 10 10 10 9 9 9 9 8 8 8 8 8 8 7 7 7 7 7 6 6 6
7 6 6 7 7 8 8 8 7 7 7 6 6 8 9 8 8 8 9 9 10 10 10 10 10 9 9 9 9 8 8 8 8 8 7 7 7 7 7 6 6 6 6 6
7 6 6 7 8 7 7 7 7 7 6 5 6 8 9 8 8 9 9 10 10 10 9 9 9 9 9 9 8 8 8 8 8 7 7 7 7 7 6 6 6 6 6 5
7 6 6 8 8 7 7 7 7 6 5 5 6 8 8 8 8 8 9 9 10 9 9 9 9 9 8 8 8 8 8 7 7 7 7 7 7 6 6 6 6 5 5 5
6 5 5 6 6 6 6 6 6 6 6 6 7 7 8 8 7 8 9 9 9 9 9 9 9 8 8 8 8 7 7 7 7 7 7 7 6 6 6 5 5 5 5 5
5 5 6 5 6 6 6 6 6 6 6 6 7 7 8 8 8 8 8 8 8 9 9 9 8 8 8 8 7 7 7 7 7 7 6 6 6 5 5 5 5 5 5 4
5 5 5 5 5 6 6 7 6 6 6 6 7 8 7 7 7 8 8 8 8 8 8 8 8 8 8 7 7 7 7 7 6 6 6 5 5 5 5 5 4 4 4 4
4 4 4 4 5 6 8 8 7 7 7 6 6 6 7 7 8 8 8 8 8 8 8 8 8 8 7 7 7 7 6 6 6 6 5 5 5 5 4 4 4 4 4 3
4 4 4 4 4 5 7 7 7 7 6 6 6 6 6 7 7 7 8 8 8 8 8 8 8 7 7 7 6 6 6 6 5 5 5 5 4 4 4 4 4 4 3 3
3 3 4 4 5 6 7 7 7 7 6 6 6 5 5 6 4 5 7 7 8 8 7 7 7 7 7 6 6 6 5 5 5 5 5 4 4 4 3 3 3 3 3 3
3 3 3 3 4 5 6 6 7 7 7 7 7 6 6 5 5 7 7 7 7 7 7 7 7 6 6 6 6 5 5 5 5 4 4 4 4 3 3 3 3 3 2 2
3 2 2 3 4 5 6 6 6 6 7 7 7 6 6 6 6 6 6 6 6 6 6 6 6 6 6 5 5 5 5 4 4 4 4 3 3 3 3 2 2 2 2 2
3 3 3 4 5 6 6 6 7 7 6 7 6 6 6 6 6 6 6 5 5 5 5 5 5 5 5 5 4 4 4 4 4 3 3 3 3 2 2 2 2 2 1 1
3 3 3 3 4 5 6 6 6 6 6 6 6 6 6 5 5 5 5 5 5 5 4 4 4 4 4 4 4 4 3 3 3 3 3 2 2 2 2 1 1 1 1 1
3 3 2 3 3 4 5 6 6 6 6 5 5 5 5 5 5 4 4 4 4 4 4 4 4 4 4 3 3 3 3 3 3 2 2 2 2 1 1 1 1 1 0 0
2 2 2 3 4 3 4 5 5 5 5 4 4 4 4 4 4 4 4 3 3 3 3 3 3 3 3 3 3 3 2 2 2 2 1 1 1 1 1 1 1 0 0 -0
Wind_Speed
1 2 2 5 5 5 4 4 6 6 3 2 6 8 9 6 4 5 5 6 6 7 5 5 5 5 5 5 5 6 7 6 6 4 4 4 2 2 2 3 4 5 5 5
2 3 6 4 3 3 4 5 5 5 3 3 5 8 8 6 5 6 7 8 8 5 4 5 5 5 6 6 6 6 6 7 7 5 4 3 3 2 2 2 3 4 4 4
3 4 3 3 3 2 4 4 4 4 4 2 2 6 5 5 3 3 5 6 6 8 8 7 6 5 6 6 7 7 7 7 7 6 4 4 4 3 2 2 1 2 4 4
3 4 2 3 3 2 4 5 4 3 1 3 1 3 6 4 4 5 6 5 6 6 6 7 7 7 7 7 6 6 7 7 6 6 6 6 5 4 3 2 2 2 3 3
4 2 2 3 4 3 5 4 3 2 2 2 1 2 7 3 5 7 7 7 7 7 7 8 8 8 7 5 5 6 6 6 6 6 7 6 4 3 2 2 3 2 1 2
4 2 3 3 3 3 3 3 3 3 3 2 4 4 6 4 6 5 6 7 7 7 7 7 6 6 5 4 5 6 7 6 6 6 6 6 6 5 4 3 3 2 1 1
4 4 3 1 2 3 3 4 4 4 3 5 2 3 8 7 6 7 8 8 8 7 7 8 7 7 6 7 7 6 7 6 6 6 6 6 6 6 5 4 4 3 2 1
2 5 4 1 2 2 1 4 4 2 4 5 3 5 7 5 4 4 4 5 5 6 6 7 8 8 8 8 7 7 7 6 6 6 5 4 5 4 3 4 4 3 3 3
2 5 3 1 1 2 1 2 4 4 2 3 6 7 7 3 3 2 2 3 5 6 6 7 7 7 7 8 8 8 8 6 6 6 5 4 4 4 4 3 3 2 2 2
4 3 4 2 1 1 2 3 4 2 1 4 7 5 5 6 6 5 4 5 5 5 5 6 6 6 6 7 6 6 7 7 6 6 5 5 4 4 4 3 3 3 2 2
3 2 4 2 3 4 2 1 2 2 3 3 4 7 5 6 6 6 7 6 6 5 6 6 5 5 5 5 6 6 6 5 5 5 5 5 4 4 3 3 3 3 2 2
3 3 4 6 4 2 4 4 5 3 4 3 3 8 6 5 4 4 5 5 5 5 5 5 5 5 5 6 6 6 6 5 5 5 5 5 4 4 4 3 3 3 3 3
3 3 2 6 3 1 3 4 5 4 2 4 4 8 5 3 2 2 4 4 4 5 5 5 5 6 6 6 6 6 6 5 5 5 5 4 4 4 4 3 3 3 3 2
3 3 6 7 6 3 5 5 5 5 4 6 9 10 8 6 5 5 5 5 4 5 6 6 6 6 6 6 6 6 6 5 5 5 5 5 5 4 4 3 3 3 3 3
4 4 6 8 8 6 8 10 8 10 10 10 10 11 13 9 8 7 5 4 4 4 5 7 7 6 6 5 5 6 5 5 5 5 5 5 4 4 3 3 3 3 3 4
3 3 3 6 6 6 9 11 11 11 10 12 12 14 11 7 4 4 5 5 6 6 6 6 7 7 7 7 6 6 6 5 5 6 5 4 4 4 4 3 3 3 3 3
3 3 2 5 5 5 8 8 10 8 8 8 12 12 6 4 5 5 5 5 6 6 6 6 7 8 8 8 7 7 6 5 5 5 5 4 4 4 4 3 3 3 3 3
6 4 3 3 3 6 7 3 6 7 7 7 7 6 5 6 5 3 3 4 5 5 5 6 6 6 6 5 5 5 5 5 5 5 5 4 4 4 3 3 3 4 3 3
6 6 4 2 4 8 8 4 3 4 5 4 6 6 5 3 3 4 3 3 5 5 5 5 5 5 5 5 5 5 4 4 5 5 5 5 5 4 4 4 4 4 3 3
3 4 4 4 4 6 6 3 1 2 3 3 2 3 2 2 2 5 4 2 3 3 2 3 3 3 4 4 5 5 5 5 6 6 6 5 5 5 5 5 4 3 3 4
3 3 5 6 7 8 6 3 1 2 4 3 2 2 1 3 5 5 4 3 2 2 2 2 3 3 4 4 5 5 5 7 6 5 5 4 5 5 5 4 3 3 3 3
7 6 6 5 6 8 3 3 3 4 3 2 2 3 3 5 5 4 4 3 2 2 2 2 2 3 3 4 5 5 6 6 4 4 4 4 4 4 3 3 3 3 3 3
7 8 6 8 8 4 2 4 4 3 4 4 4 5 4 5 5 5 4 4 4 3 3 2 3 3 3 3 5 6 6 4 4 4 5 4 4 4 4 4 4 3 3 3
5 3 3 5 7 6 5 4 5 4 5 6 5 5 5 5 6 6 5 4 4 4 3 3 3 3 4 4 5 6 5 4 5 5 5 4 4 4 3 3 4 4 4 4
6 3 3 6 7 7 6 5 5 4 4 5 5 5 5 6 6 6 5 6 5 5 4 3 4 5 6 5 5 5 4 5 5 5 5 4 4 4 4 4 4 5 6 6
5 6 6 8 7 7 8 6 5 6 7 6 6 6 6 6 7 6 6 6 5 5 4 4 5 5 5 5 5 5 5 5 6 5 5 4 4 4 3 3 4 6 7 9
Wind_Direction
101 74 245 241 224 228 240 248 260 256 260 227 244 267 276 270 236 230 220 207 204 206 197 173 169 158 149 149 152 165 162 158 147 139 142 136 144 131 124 148 146 136 129 123
46 266 252 256 257 252 257 272 271 281 267 229 254 272 275 259 234 220 211 209 206 195 181 168 160 156 157 163 163 167 169 166 161 154 148 138 137 135 136 141 141 145 141 139
219 253 262 264 281 288 271 247 259 268 310 284 277 294 278 271 252 238 222 209 203 196 194 183 174 170 165 172 175 172 168 168 163 152 131 113 97 87 103 128 134 160 156 151
266 271 280 259 250 231 264 250 257 262 347 284 186 280 283 261 263 247 235 219 214 206 196 187 180 179 182 187 178 165 166 163 159 151 152 150 151 159 179 170 160 153 155 156
276 275 271 252 251 217 244 271 266 241 190 316 303 200 285 276 253 249 238 226 219 209 197 193 189 186 183 176 170 164 159 158 153 154 158 151 150 157 146 135 143 155 147 162
261 275 238 239 268 229 263 343 18 46 74 293 239 185 277 243 232 243 233 226 218 206 195 192 188 172 163 157 159 158 155 158 157 156 157 158 161 159 151 152 162 173 166 167
317 302 279 255 328 350 47 63 26 2 358 260 257 202 251 247 234 226 225 222 216 207 194 185 181 175 169 168 169 167 162 165 163 158 163 167 168 167 172 174 178 180 185 196
316 294 264 253 191 217 238 133 146 216 252 284 305 243 256 259 260 250 233 214 199 200 197 188 186 183 180 177 173 170 170 169 163 163 169 168 164 165 177 179 173 181 194 206
207 268 299 266 228 168 160 179 176 151 251 274 279 283 301 259 287 287 213 190 197 200 196 190 185 181 178 177 177 175 170 165 166 168 164 163 163 165 176 175 170 182 197 198
176 263 287 306 4 297 191 156 96 119 203 283 295 281 261 265 258 254 233 218 217 208 199 188 183 182 178 176 171 165 166 168 165 164 167 169 171 174 173 165 176 186 195 191
161 204 299 334 217 219 174 170 147 157 178 190 283 279 238 249 243 235 238 228 216 211 204 193 190 184 173 163 162 164 165 161 161 164 162 158 165 165 164 176 190 192 194 193
160 143 263 261 254 225 199 199 162 181 246 208 224 270 278 268 249 220 231 231 217 208 198 189 183 174 170 171 172 172 170 168 171 165 160 165 166 163 171 189 198 193 198 205
145 132 334 335 333 323 246 231 192 164 162 199 213 265 307 329 309 249 228 234 225 207 194 187 181 182 183 182 178 175 174 176 171 163 162 166 172 175 186 197 199 196 200 209
129 173 198 222 240 227 246 243 208 176 206 232 232 258 289 296 288 276 251 240 229 211 195 189 192 195 192 187 181 178 183 178 171 168 169 180 190 192 197 200 199 204 204 208
137 220 239 252 258 245 245 247 223 212 215 224 247 253 265 266 258 252 244 229 217 214 202 196 195 196 194 191 190 187 187 181 174 171 180 195 196 192 194 199 207 212 212 216
161 221 266 279 267 261 263 253 235 230 231 240 259 268 264 270 259 253 246 226 219 219 212 205 199 196 198 197 195 191 191 187 174 179 192 193 187 190 199 207 209 211 216 218
196 191 246 275 297 315 275 241 219 221 220 214 239 254 272 276 254 244 239 228 226 225 216 209 205 203 203 201 194 193 193 180 174 185 193 190 189 198 207 207 204 213 219 215
177 172 195 270 333 256 250 246 208 221 246 233 245 267 264 257 264 256 233 225 237 231 222 216 208 205 203 195 189 183 176 176 183 192 199 198 195 205 207 204 216 221 217 219
180 169 180 204 253 275 292 267 199 202 268 252 242 271 291 306 346 314 278 236 232 232 227 217 206 197 189 186 178 166 176 181 189 202 207 206 199 205 207 217 228 222 217 230
129 151 169 192 229 251 260 279 226 131 278 295 249 272 301 35 345 285 302 291 260 250 231 212 191 171 178 188 168 168 187 193 208 212 211 205 199 204 214 223 227 219 217 232
137 164 196 210 235 262 264 281 92 182 264 309 286 269 241 227 236 268 298 299 278 251 242 205 179 188 199 184 168 183 198 213 218 210 205 203 203 209 217 221 223 224 226 237
182 183 197 188 218 254 244 131 183 232 275 286 276 265 256 256 269 277 283 279 278 269 251 208 194 214 214 186 177 198 219 223 211 201 204 210 212 214 212 212 228 228 222 238
203 197 193 199 221 251 211 211 242 227 248 258 253 258 251 256 263 266 267 266 267 257 246 229 207 223 235 210 195 210 227 212 201 201 213 220 219 217 209 208 222 233 227 233
253 205 197 250 266 276 274 270 274 248 246 257 255 254 248 253 258 258 258 260 258 256 246 234 218 228 244 235 222 222 223 203 196 208 219 219 217 225 223 216 214 219 229 236
235 214 230 257 276 292 280 264 267 277 271 274 275 260 252 252 259 252 255 256 253 254 250 231 223 232 242 242 237 231 217 196 203 214 220 220 221 225 231 230 225 225 227 224
216 215 222 248 251 250 268 275 278 274 270 266 268 273 268 248 251 252 252 251 247 246 244 239 238 239 245 242 243 237 217 199 201 215 221 222 223 226 228 240 267 253 245 257
Height
1516 1520 1520 1518 1516 1516 1516 1515 1514 1509 1504 1505 1504 1501 1496 1493 1493 1492 1492 1492 1493 1494 1495 1497 1498 1499 1501 1503 1504 1507 1509 1511 1512 1513 1515 1516 1518 1520 1521 1523 1524 1525 1527 1527
1520 1520 1515 1513 1513 1513 1513 1514 1512 1507 1503 1504 1503 1500 1494 1491 1490 1490 1490 1490 1491 1492 1493 1495 1496 1497 1498 1500 1502 1504 1506 1509 1511 1512 1514 1515 1516 1518 1520 1521 1522 1524 1525 1526
1518 1516 1513 1513 1512 1512 1511 1512 1510 1509 1504 1502 1503 1501 1495 1490 1489 1488 1488 1488 1489 1489 1490 1492 1494 1495 1496 1498 1500 1501 1504 1507 1509 1511 1512 1513 1515 1516 1518 1519 1521 1522 1523 1524
1516 1513 1512 1512 1512 1511 1513 1507 1507 1506 1509 1511 1507 1511 1496 1491 1489 1487 1486 1486 1486 1487 1488 1490 1491 1493 1494 1496 1498 1500 1503 1506 1507 1509 1510 1511 1512 1514 1516 1518 1519 1520 1521 1522
1515 1512 1512 1512 1509 1509 1509 1505 1506 1506 1507 1510 1508 1511 1500 1491 1489 1485 1483 1483 1484 1485 1486 1488 1489 1491 1493 1494 1496 1498 1501 1503 1505 1507 1509 1510 1511 1513 1514 1515 1517 1518 1519 1520
1514 1511 1511 1509 1507 1507 1506 1506 1506 1510 1512 1513 1507 1511 1502 1492 1485 1481 1480 1480 1481 1483 1484 1486 1487 1489 1491 1493 1495 1497 1499 1501 1504 1506 1507 1508 1510 1511 1512 1513 1515 1516 1517 1517
1516 1512 1509 1508 1507 1507 1508 1513 1519 1517 1521 1514 1504 1506 1498 1483 1479 1478 1477 1477 1478 1479 1481 1482 1484 1486 1488 1491 1493 1496 1497 1499 1502 1504 1505 1506 1508 1509 1510 1512 1513 1514 1514 1514
1520 1518 1509 1507 1508 1509 1509 1511 1520 1520 1520 1515 1505 1503 1488 1478 1476 1475 1474 1475 1476 1477 1478 1479 1481 1484 1486 1489 1492 1494 1496 1497 1499 1501 1503 1505 1506 1507 1509 1510 1511 1511 1511 1512
1519 1516 1509 1507 1506 1507 1508 1512 1512 1518 1517 1517 1508 1497 1484 1476 1475 1474 1473 1473 1474 1475 1476 1478 1480 1482 1485 1487 1489 1491 1493 1495 1497 1499 1501 1502 1503 1505 1506 1507 1508 1508 1509 1509
1513 1516 1510 1508 1507 1506 1507 1509 1516 1517 1516 1514 1506 1499 1491 1478 1475 1474 1473 1472 1473 1474 1475 1477 1479 1481 1483 1485 1487 1489 1491 1493 1495 1497 1498 1500 1501 1502 1503 1504 1505 1506 1506 1506
1511 1516 1513 1510 1508 1507 1508 1509 1511 1516 1517 1514 1511 1498 1479 1476 1473 1472 1471 1471 1472 1473 1474 1476 1478 1480 1482 1484 1485 1487 1489 1491 1492 1494 1496 1497 1498 1500 1501 1501 1502 1502 1503 1503
1510 1516 1518 1511 1505 1504 1504 1505 1509 1513 1512 1514 1513 1499 1474 1473 1471 1470 1471 1471 1471 1472 1473 1475 1477 1478 1480 1482 1484 1485 1487 1489 1490 1492 1493 1494 1496 1497 1497 1498 1498 1499 1499 1499
1509 1514 1516 1510 1509 1506 1505 1503 1504 1507 1511 1515 1513 1495 1474 1472 1471 1470 1470 1470 1470 1471 1472 1474 1475 1477 1478 1480 1481 1483 1485 1486 1488 1489 1491 1492 1493 1493 1494 1494 1495 1495 1495 1495
1506 1511 1514 1509 1503 1503 1503 1501 1501 1505 1510 1508 1501 1488 1477 1474 1472 1471 1470 1470 1470 1470 1471 1472 1473 1475 1476 1478 1479 1481 1483 1484 1486 1487 1488 1489 1489 1490 1490 1491 1491 1491 1491 1491
1506 1510 1508 1505 1501 1501 1500 1497 1497 1499 1498 1498 1488 1484 1475 1472 1471 1469 1468 1468 1468 1468 1469 1470 1471 1472 1474 1476 1477 1479 1480 1482 1483 1484 1484 1485 1486 1487 1487 1487 1487 1487 1487 1487
1505 1507 1505 1503 1498 1498 1495 1491 1492 1491 1490 1488 1484 1478 1469 1469 1468 1467 1467 1466 1466 1466 1467 1468 1469 1471 1472 1473 1475 1476 1477 1479 1480 1480 1481 1482 1482 1483 1483 1483 1483 1483 1483 1483
1505 1506 1507 1506 1500 1495 1491 1481 1482 1483 1480 1479 1478 1472 1468 1468 1466 1465 1464 1464 1464 1465 1465 1466 1467 1468 1469 1471 1472 1473 1474 1475 1476 1477 1477 1478 1478 1478 1479 1479 1479 1479 1479 1478
1501 1504 1508 1507 1501 1496 1480 1473 1474 1475 1473 1473 1471 1468 1466 1465 1464 1463 1463 1463 1462 1462 1463 1464 1464 1465 1467 1468 1469 1470 1471 1472 1473 1473 1473 1474 1474 1474 1475 1475 1475 1475 1475 1474
1495 1499 1505 1507 1503 1491 1478 1472 1471 1473 1472 1470 1469 1467 1465 1464 1463 1462 1461 1461 1461 1461 1461 1461 1462 1463 1464 1465 1466 1467 1468 1468 1469 1469 1470 1470 1470 1470 1470 1470 1470 1470 1470 1470
1494 1496 1502 1502 1497 1488 1475 1470 1468 1471 1473 1468 1467 1467 1466 1465 1467 1463 1460 1459 1459 1459 1459 1459 1460 1460 1461 1462 1463 1463 1464 1465 1465 1466 1466 1466 1466 1466 1466 1466 1466 1466 1466 1465
1497 1499 1499 1498 1495 1484 1473 1469 1469 1475 1472 1468 1466 1465 1465 1465 1464 1462 1460 1458 1458 1457 1457 1457 1458 1458 1459 1459 1460 1460 1460 1461 1462 1462 1462 1462 1462 1462 1462 1462 1462 1462 1461 1461
1490 1494 1496 1495 1493 1483 1469 1469 1472 1470 1467 1466 1465 1464 1463 1462 1460 1459 1458 1457 1456 1455 1455 1455 1455 1455 1456 1456 1456 1456 1457 1457 1458 1458 1458 1458 1458 1458 1458 1458 1458 1457 1456 1455
1483 1481 1482 1481 1476 1469 1467 1467 1467 1466 1465 1464 1463 1462 1461 1459 1458 1457 1456 1455 1454 1453 1452 1452 1452 1452 1452 1452 1453 1452 1453 1453 1453 1453 1453 1453 1453 1453 1453 1453 1453 1452 1451 1451
1477 1474 1476 1475 1469 1466 1465 1464 1464 1464 1463 1461 1460 1459 1458 1456 1454 1453 1452 1451 1450 1450 1449 1449 1448 1448 1448 1448 1448 1448 1448 1448 1448 1448 1448 1448 1448 1448 1448 1448 1448 1447 1446 1445
1472 1472 1472 1471 1466 1463 1461 1461 1460 1460 1459 1457 1456 1455 1454 1452 1450 1449 1448 1447 1446 1446 1445 1445 1444 1444 1443 1444 1444 1443 1443 1443 1443 1443 1443 1443 1443 1443 1443 1443 1442 1442 1441 1441
1468 1469 1469 1465 1462 1462 1459 1458 1457 1456 1454 1453 1452 1450 1449 1448 1446 1445 1443 1442 1442 1441 1441 1440 1439 1439 1439 1439 1438 1438 1438 1438 1438 1438 1438 1438 1438 1438 1438 1437 1437 1436 1436 1435